Location: White Sands National Monument
(32.8140°N, 106.2665°W)
Time: 02:14:35
(UTC-07:00)

Daily predictions for brighter satellites

Satellite Brightness Start Highest point End
(mag) Time Altitude Azimuth Time Altitude Azimuth Time Altitude Azimuth
Cosmos 1980 Rocket 3.5 03:54:42 33° NE 03:54:42 33° NE 03:57:47 10° NNE
ATLAS 5 CENTAUR R/B 3.6 03:59:39 26° ENE 03:59:39 26° ENE 04:02:19 10° NE
Milstar 3 Cent rocket 4.3 03:58:15 16° SSE 03:58:38 16° SE 04:02:18 10° ESE
CENTAUR R/B 4.2 04:15:27 28° S 04:15:27 28° S 04:19:12 10° S
SJ 16-02 3.6 04:16:20 17° NNE 04:16:20 17° NNE 04:17:26 10° NNE
Cosmos 1125 Rocket 3.8 04:26:34 56° NNE 04:26:34 56° NNE 04:30:38 10° NNE
Hubble Space Telescope 2.4 04:28:54 30° SE 04:28:54 30° SE 04:31:19 10° ESE
SL-16 R/B 3.2 04:24:27 10° S 04:29:46 44° ESE 04:35:07 10° NE
USA 215 3.1 04:24:58 10° SSE 04:31:29 69° SW 04:32:25 61° W
BREEZE-M DEB (TANK) 3.9 04:34:48 65° W 04:35:34 76° SW 04:51:22 10° SE
Intelsat 5-3 Rocket 4.5 04:40:01 23° S 04:40:27 24° S 04:46:34 10° SE
BREEZE-M DEB (TANK) 3.8 04:42:18 24° NE 04:42:18 24° NE 04:43:42 10° E
Cosmos 1605 Rocket 3.9 04:35:52 10° S 04:42:00 85° E 04:48:07 10° N
SEDSat Delta rocket 3.1 04:44:59 73° SSW 04:45:12 75° S 04:49:49 10° E
CZ-3 R/B 3.0 04:35:27 34° W 04:45:53 70° SSW 04:52:47 10° ESE
COSMOS 2455 3.1 04:53:02 10° NNW 04:59:03 69° ENE 05:05:02 10° SSE
Delta 168 4.4 05:00:14 17° S 05:00:14 17° S 05:02:17 10° SE
CZ-4B R/B 3.3 04:56:05 10° N 05:01:22 50° WNW 05:03:38 32° SW
Cosmos 468 4.4 04:58:36 15° NNW 05:02:58 64° WSW 05:08:07 10° S
Lacrosse 5 rocket 2.2 05:10:14 31° SSW 05:10:14 31° SSW 05:13:10 10° S
USA 116 4.1 05:06:02 10° SSE 05:10:31 88° ENE 05:15:33 10° NNW
Cosmos 405 Rocket 2.6 05:08:15 19° SSW 05:10:58 67° W 05:14:52 10° N
IRS-1C Rocket 4.2 05:06:21 10° N 05:11:27 51° WNW 05:16:30 10° SSW
Cosmos 2263 Rocket 3.7 05:07:02 10° N 05:12:17 37° ENE 05:17:31 10° SE
USA 102 4.2 05:15:16 32° E 05:15:50 39° ESE 05:19:29 10° S
Cosmos 1269 Rocket 3.9 05:12:33 10° NNW 05:17:51 86° WSW 05:23:07 10° SSE
Okean O Rocket 3.5 05:14:47 10° NNW 05:15:57 15° NNW 05:15:57 15° NNW
SKYMED 2 3.9 05:14:43 10° SSE 05:19:00 66° ENE 05:23:19 10° N
BREEZE-M R/B 4.2 05:15:43 18° SW 05:21:00 74° NW 05:27:05 10° NE
Delta 2 Rocket 3.5 05:20:26 28° SW 05:22:19 59° SSE 05:25:57 10° E
ISS -1.6 05:20:27 10° S 05:23:11 25° SE 05:25:55 10° ENE
Cosmos 2322 Rocket 2.2 05:20:55 10° SSW 05:26:29 58° WNW 05:32:06 10° NNE
Cosmos 405 3.1 05:24:47 10° NNW 05:28:15 49° W 05:31:42 10° S
PAYLOAD A 3.9 05:27:07 10° N 05:31:55 65° WNW 05:36:53 10° SSW
Cosmos 2360 Rocket 2.7 05:28:27 10° S 05:34:02 63° ESE 05:39:38 10° NNE
Landsat 4 4.3 05:31:33 10° SSE 05:35:11 57° ENE 05:38:51 10° N
NOAA 6 4.1 05:30:25 10° N 05:35:28 57° WNW 05:40:28 10° SSW
Radarsat Rocket 4.0 05:30:07 10° NNE 05:36:03 85° WNW 05:42:31 10° SSW
Cosmos 1461 2.9 05:32:16 10° SSW 05:36:30 90° W 05:41:00 10° NNE
Cosmos 1980 Rocket 3.8 05:36:30 14° WNW 05:36:38 14° NW 05:39:38 10° NNW
Cosmos 1703 Rocket 4.1 05:32:49 10° S 05:37:12 63° E 05:41:39 10° NNE
Cosmos 2242 Rocket 4.3 05:34:04 10° SW 05:38:13 34° W 05:42:22 10° NNW
DELTA 2 R/B(2) 4.3 05:38:43 20° WNW 05:41:15 58° SSW 05:43:33 10° SE
Cosmos 2227 4.5 05:37:26 10° NW 05:42:45 45° WSW 05:48:02 10° S
ATLAS 5 CENTAUR R/B 3.0 05:41:15 18° WNW 05:42:49 21° NW 05:46:31 10° N
Lacrosse 4 Rocket 3.7 05:41:00 10° SSE 05:44:26 27° ESE 05:47:51 10° NE
Meteor 1-25 Rocket 4.2 05:42:25 10° N 05:48:11 82° W 05:53:59 10° S
Aureole 2 Rocket 1.6 05:45:36 10° SSW 05:48:17 83° WNW 05:50:59 10° NNE
Cosmos 1908 Rocket 3.5 05:51:33 10° N 05:55:56 87° W 06:00:16 10° S
Cosmos 1733 Rocket 3.9 05:55:00 10° NNW 05:58:47 29° W 06:02:34 10° SSW
IDEFIX/ARIANE 42P 3.2 05:55:43 10° N 06:00:19 33° WNW 06:04:53 10° SW
MTI 4.0 05:58:04 10° S 06:01:07 44° W 06:04:11 10° NNW
SMAP 4.2 06:00:01 10° NNE 06:04:32 49° E 06:09:01 10° S
Cosmos 2251 Rocket 3.9 06:00:04 10° NNW 06:05:22 72° ENE 06:10:40 10° SSE
Cosmos 1725 Rocket 4.3 05:59:39 10° S 06:05:54 76° E 06:12:13 10° N
Okean 1-7 3.0 06:02:35 10° S 06:06:53 81° W 06:11:15 10° N
COSMO-SKYMED 1 3.3 06:03:19 10° SSW 06:07:09 31° W 06:11:00 10° NW
Hubble Space Telescope 1.8 06:04:31 10° WSW 06:08:18 34° S 06:12:04 10° SE
Meteor 1-4 Rocket 4.1 06:04:42 10° N 06:08:19 42° E 06:11:55 10° SSE
COSMOS 2428 3.8 06:04:38 10° S 06:10:08 51° ESE 06:15:41 10° NNE
Cosmos 2221 Rocket 3.6 06:08:21 10° S 06:12:49 86° W 06:17:16 10° N
Cosmos 2322 3.7 06:07:26 10° SSW 06:13:05 78° WNW 06:18:46 10° NNE
Cosmos 1782 3.5 06:09:39 10° SW 06:13:19 33° W 06:16:59 10° NNW
Cosmos 1602 4.3 06:09:47 10° N 06:13:35 64° E 06:17:22 10° SSE
SL-16 R/B 3.4 06:09:45 10° WSW 06:14:01 22° WNW 06:18:19 10° N
USA 229 DEB 4.3 06:10:16 10° NNW 06:17:31 71° ENE 06:24:53 10° SE
USA 229 4.3 06:10:22 10° NNW 06:17:37 70° ENE 06:25:00 10° SE
